Location: Unspecified
(42.9300°N, 71.1866°W)
Time: 00:01:40
(UTC-04:00)

Genesis I - Visible Passes

Search period start: 15 September 2014 00:00
Search period end: 25 September 2014 00:00
Orbit: 502 x 563 km, 64.5° (Epoch: 14 September)

Date Brightness Start Highest point End Pass type
(mag) Time Alt. Az. Time Alt. Az. Time Alt. Az.
20 Sep 6.1 05:56:09 10° N 05:59:02 18° NE 06:01:54 10° E visible
21 Sep 6.0 05:45:35 10° N 05:48:40 20° NE 05:51:45 10° E visible
22 Sep 5.9 05:35:01 10° N 05:38:17 22° NE 05:41:33 10° E visible
23 Sep 5.7 05:24:28 10° N 05:27:54 24° NE 05:31:19 10° E visible
24 Sep 5.5 05:13:54 10° NNW 05:17:29 27° NE 05:21:03 10° ESE visible
